Time,TemperatureF,DewpointF,PressureIn,WindDirection,WindDirectionDegrees,WindSpeedMPH,WindSpeedGustMPH,Humidity,HourlyPrecipIn,Conditions,Clouds,dailyrainin,SolarRadiationWatts/m^2,SoftwareType,DateUTC
2013-01-27 00:01:00,50.0,31.0,-100.00,WNW,295,15.0,34.0,47,0.00,,,0.08,0.000000,,2013-01-27 08:01:00,
2013-01-27 00:11:00,50.0,31.0,-100.00,WNW,295,15.0,34.0,47,0.00,,,0.08,0.000000,,2013-01-27 08:11:00,
2013-01-27 00:21:00,50.0,31.0,-100.00,WNW,295,15.0,34.0,47,0.00,,,0.08,0.000000,,2013-01-27 08:21:00,
2013-01-27 00:52:00,47.0,32.0,-100.00,West,275,14.0,35.0,56,0.00,,,0.07,0.000000,,2013-01-27 08:52:00,
2013-01-27 01:02:00,47.0,32.0,-100.00,West,275,14.0,35.0,56,0.00,,,0.07,0.000000,,2013-01-27 09:02:00,
2013-01-27 01:11:00,47.0,32.0,-100.00,West,275,14.0,35.0,56,0.00,,,0.07,0.000000,,2013-01-27 09:11:00,
2013-01-27 01:21:00,47.0,32.0,-100.00,West,275,14.0,35.0,56,0.00,,,0.07,0.000000,,2013-01-27 09:21:00,
2013-01-27 01:52:00,47.0,31.0,-100.00,West,264,12.0,43.0,53,0.00,,,0.02,0.000000,,2013-01-27 09:52:00,
2013-01-27 02:01:00,47.0,31.0,-100.00,West,264,12.0,43.0,53,0.00,,,0.02,0.000000,,2013-01-27 10:01:00,
2013-01-27 02:11:00,47.0,31.0,-100.00,West,264,12.0,43.0,53,0.00,,,0.02,0.000000,,2013-01-27 10:11:00,
2013-01-27 02:21:00,47.0,31.0,-100.00,West,264,12.0,43.0,53,0.00,,,0.02,0.000000,,2013-01-27 10:21:00,
2013-01-27 02:52:00,48.0,31.0,-100.00,West,272,13.0,31.0,52,0.00,,,0.01,0.000000,,2013-01-27 10:52:00,
2013-01-27 03:01:00,48.0,31.0,-100.00,West,272,13.0,31.0,52,0.00,,,0.01,0.000000,,2013-01-27 11:01:00,
2013-01-27 03:11:00,48.0,31.0,-100.00,West,272,13.0,31.0,52,0.00,,,0.01,0.000000,,2013-01-27 11:11:00,
2013-01-27 03:21:00,48.0,31.0,-100.00,West,272,13.0,31.0,52,0.00,,,0.01,0.000000,,2013-01-27 11:21:00,
2013-01-27 03:52:00,46.0,33.0,-100.00,West,265,13.0,27.0,60,0.00,,,0.01,0.000000,,2013-01-27 11:52:00,
2013-01-27 04:02:00,46.0,33.0,-100.00,West,265,13.0,27.0,60,0.00,,,0.01,0.000000,,2013-01-27 12:02:00,
2013-01-27 04:11:00,46.0,33.0,-100.00,West,265,13.0,27.0,60,0.00,,,0.01,0.000000,,2013-01-27 12:11:00,
2013-01-27 04:21:00,46.0,33.0,-100.00,West,265,13.0,27.0,60,0.00,,,0.01,0.000000,,2013-01-27 12:21:00,
2013-01-27 04:52:00,46.0,32.0,-100.00,WSW,253,11.0,29.0,59,0.00,,,0.01,0.000000,,2013-01-27 12:52:00,
2013-01-27 05:02:00,46.0,32.0,-100.00,WSW,253,11.0,29.0,59,0.00,,,0.01,0.000000,,2013-01-27 13:02:00,
2013-01-27 05:11:00,46.0,32.0,-100.00,WSW,253,11.0,29.0,59,0.00,,,0.01,0.000000,,2013-01-27 13:11:00,
2013-01-27 05:22:00,46.0,32.0,-100.00,WSW,253,11.0,29.0,59,0.00,,,0.01,0.000000,,2013-01-27 13:22:00,
2013-01-27 05:52:00,47.0,33.0,-100.00,WSW,242,13.0,28.0,57,0.00,,,0.01,0.000000,,2013-01-27 13:52:00,
2013-01-27 06:01:00,47.0,33.0,-100.00,WSW,242,13.0,28.0,57,0.00,,,0.01,0.000000,,2013-01-27 14:01:00,
2013-01-27 06:11:00,47.0,33.0,-100.00,WSW,242,13.0,28.0,57,0.00,,,0.01,0.000000,,2013-01-27 14:11:00,
2013-01-27 06:21:00,47.0,33.0,-100.00,WSW,242,13.0,28.0,57,0.00,,,0.01,0.000000,,2013-01-27 14:21:00,
2013-01-27 07:11:00,44.0,29.0,-100.00,West,263,20.0,31.0,56,0.00,,,0.01,0.000000,,2013-01-27 15:11:00,
2013-01-27 07:21:00,44.0,29.0,-100.00,West,263,20.0,31.0,56,0.00,,,0.01,0.000000,,2013-01-27 15:21:00,
2013-01-27 07:53:00,44.0,28.0,-100.00,West,267,23.0,42.0,54,0.00,,,0.01,17.000000,,2013-01-27 15:53:00,
2013-01-27 08:02:00,44.0,28.0,-100.00,West,267,23.0,42.0,54,0.00,,,0.01,17.000000,,2013-01-27 16:02:00,
2013-01-27 08:11:00,44.0,28.0,-100.00,West,267,23.0,42.0,54,0.00,,,0.01,17.000000,,2013-01-27 16:11:00,
2013-01-27 08:21:00,44.0,28.0,-100.00,West,267,23.0,42.0,54,0.00,,,0.01,17.000000,,2013-01-27 16:21:00,
2013-01-27 08:53:00,44.0,24.0,-100.00,SW,231,12.0,49.0,45,0.00,,,0.01,224.000000,,2013-01-27 16:53:00,
2013-01-27 09:01:00,44.0,24.0,-100.00,SW,231,12.0,49.0,45,0.00,,,0.01,224.000000,,2013-01-27 17:01:00,
2013-01-27 09:12:00,44.0,24.0,-100.00,SW,231,12.0,49.0,45,0.00,,,0.01,224.000000,,2013-01-27 17:12:00,
2013-01-27 09:21:00,44.0,24.0,-100.00,SW,231,12.0,49.0,45,0.00,,,0.01,224.000000,,2013-01-27 17:21:00,
2013-01-27 09:52:00,43.0,22.0,-100.00,WNW,296,22.0,55.0,43,0.01,,,0.02,472.000000,,2013-01-27 17:52:00,
2013-01-27 10:02:00,43.0,22.0,-100.00,WNW,296,22.0,55.0,43,0.01,,,0.02,472.000000,,2013-01-27 18:02:00,
2013-01-27 10:11:00,43.0,22.0,-100.00,WNW,296,22.0,55.0,43,0.01,,,0.02,472.000000,,2013-01-27 18:11:00,
2013-01-27 10:22:00,43.0,22.0,-100.00,WNW,296,22.0,55.0,43,0.01,,,0.02,472.000000,,2013-01-27 18:22:00,
2013-01-27 10:52:00,46.0,22.0,-100.00,SW,214,10.0,36.0,38,0.00,,,0.02,673.000000,,2013-01-27 18:52:00,
2013-01-27 11:01:00,46.0,22.0,-100.00,SW,214,10.0,36.0,38,0.00,,,0.02,673.000000,,2013-01-27 19:01:00,
2013-01-27 11:11:00,46.0,22.0,-100.00,SW,214,10.0,36.0,38,0.00,,,0.02,673.000000,,2013-01-27 19:11:00,
2013-01-27 11:21:00,46.0,22.0,-100.00,SW,214,10.0,36.0,38,0.00,,,0.02,673.000000,,2013-01-27 19:21:00,
2013-01-27 11:52:00,43.0,19.0,-100.00,WNW,302,19.0,35.0,37,0.00,,,0.02,810.000000,,2013-01-27 19:52:00,
2013-01-27 12:02:00,43.0,19.0,-100.00,WNW,302,19.0,35.0,37,0.00,,,0.02,810.000000,,2013-01-27 20:02:00,
2013-01-27 12:11:00,43.0,19.0,-100.00,WNW,302,19.0,35.0,37,0.00,,,0.02,810.000000,,2013-01-27 20:11:00,
2013-01-27 12:21:00,43.0,19.0,-100.00,WNW,302,19.0,35.0,37,0.00,,,0.02,810.000000,,2013-01-27 20:21:00,
2013-01-27 12:52:00,46.0,22.0,-100.00,WNW,284,12.0,51.0,38,0.00,,,0.02,863.000000,,2013-01-27 20:52:00,
2013-01-27 13:02:00,46.0,22.0,-100.00,WNW,284,12.0,51.0,38,0.00,,,0.02,863.000000,,2013-01-27 21:02:00,
2013-01-27 13:12:00,46.0,22.0,-100.00,WNW,284,12.0,51.0,38,0.00,,,0.02,863.000000,,2013-01-27 21:12:00,
2013-01-27 13:22:00,46.0,22.0,-100.00,WNW,284,12.0,51.0,38,0.00,,,0.02,863.000000,,2013-01-27 21:22:00,
2013-01-27 13:52:00,44.0,18.0,-100.00,West,266,16.0,34.0,35,0.00,,,0.02,831.000000,,2013-01-27 21:52:00,
2013-01-27 14:01:00,44.0,18.0,-100.00,West,266,16.0,34.0,35,0.00,,,0.02,831.000000,,2013-01-27 22:01:00,
2013-01-27 14:11:00,44.0,18.0,-100.00,West,266,16.0,34.0,35,0.00,,,0.02,831.000000,,2013-01-27 22:11:00,
2013-01-27 14:21:00,44.0,18.0,-100.00,West,266,16.0,34.0,35,0.00,,,0.02,831.000000,,2013-01-27 22:21:00,
2013-01-27 14:52:00,43.0,20.0,-100.00,WNW,293,20.0,44.0,40,0.00,,,0.02,727.000000,,2013-01-27 22:52:00,
2013-01-27 15:02:00,43.0,20.0,-100.00,WNW,293,20.0,44.0,40,0.00,,,0.02,727.000000,,2013-01-27 23:02:00,
2013-01-27 15:11:00,43.0,20.0,-100.00,WNW,293,20.0,44.0,40,0.00,,,0.02,727.000000,,2013-01-27 23:11:00,
2013-01-27 15:21:00,43.0,20.0,-100.00,WNW,293,20.0,44.0,40,0.00,,,0.02,727.000000,,2013-01-27 23:21:00,
2013-01-27 15:53:00,43.0,16.0,-100.00,West,281,17.0,47.0,33,0.00,,,0.01,537.000000,,2013-01-27 23:53:00,
2013-01-27 16:01:00,43.0,16.0,-100.00,West,281,17.0,47.0,33,0.00,,,0.01,537.000000,,2013-01-28 00:01:00,
2013-01-27 16:11:00,43.0,16.0,-100.00,West,281,17.0,47.0,33,0.00,,,0.01,537.000000,,2013-01-28 00:11:00,
2013-01-27 16:21:00,43.0,16.0,-100.00,West,281,17.0,47.0,33,0.00,,,0.01,537.000000,,2013-01-28 00:21:00,
2013-01-27 16:52:00,43.0,18.0,-100.00,West,281,15.0,31.0,36,0.00,,,0.01,261.000000,,2013-01-28 00:52:00,
2013-01-27 17:01:00,43.0,18.0,-100.00,West,281,15.0,31.0,36,0.00,,,0.01,261.000000,,2013-01-28 01:01:00,
2013-01-27 17:11:00,43.0,18.0,-100.00,West,281,15.0,31.0,36,0.00,,,0.01,261.000000,,2013-01-28 01:11:00,
2013-01-27 17:21:00,43.0,18.0,-100.00,West,281,15.0,31.0,36,0.00,,,0.01,261.000000,,2013-01-28 01:21:00,
2013-01-27 17:52:00,44.0,16.0,-100.00,WNW,301,18.0,28.0,32,0.00,,,0.01,13.000000,,2013-01-28 01:52:00,
2013-01-27 18:02:00,44.0,16.0,-100.00,WNW,301,18.0,28.0,32,0.00,,,0.01,13.000000,,2013-01-28 02:02:00,
2013-01-27 18:11:00,44.0,16.0,-100.00,WNW,301,18.0,28.0,32,0.00,,,0.01,13.000000,,2013-01-28 02:11:00,
2013-01-27 18:21:00,44.0,16.0,-100.00,WNW,301,18.0,28.0,32,0.00,,,0.01,13.000000,,2013-01-28 02:21:00,
2013-01-27 18:52:00,44.0,14.0,-100.00,West,274,16.0,33.0,29,0.00,,,0.01,0.000000,,2013-01-28 02:52:00,
2013-01-27 19:02:00,44.0,14.0,-100.00,West,274,16.0,33.0,29,0.00,,,0.01,0.000000,,2013-01-28 03:02:00,
2013-01-27 19:11:00,44.0,14.0,-100.00,West,274,16.0,33.0,29,0.00,,,0.01,0.000000,,2013-01-28 03:11:00,
2013-01-27 19:21:00,44.0,14.0,-100.00,West,274,16.0,33.0,29,0.00,,,0.01,0.000000,,2013-01-28 03:21:00,
2013-01-27 19:53:00,42.0,21.0,-100.00,WSW,250,17.0,40.0,42,0.00,,,0.01,0.000000,,2013-01-28 03:53:00,
2013-01-27 20:01:00,42.0,21.0,-100.00,WSW,250,17.0,40.0,42,0.00,,,0.01,0.000000,,2013-01-28 04:01:00,
2013-01-27 20:11:00,42.0,21.0,-100.00,WSW,250,17.0,40.0,42,0.00,,,0.01,0.000000,,2013-01-28 04:11:00,
2013-01-27 20:21:00,42.0,21.0,-100.00,WSW,250,17.0,40.0,42,0.00,,,0.01,0.000000,,2013-01-28 04:21:00,
2013-01-27 20:52:00,34.0,28.0,-100.00,West,281,13.0,34.0,79,0.00,,,0.01,0.000000,,2013-01-28 04:52:00,
2013-01-27 21:03:00,34.0,28.0,-100.00,West,281,13.0,34.0,79,0.00,,,0.01,0.000000,,2013-01-28 05:03:00,
2013-01-27 21:11:00,34.0,28.0,-100.00,West,281,13.0,34.0,79,0.00,,,0.01,0.000000,,2013-01-28 05:11:00,
2013-01-27 21:21:00,34.0,28.0,-100.00,West,281,13.0,34.0,79,0.00,,,0.01,0.000000,,2013-01-28 05:21:00,
2013-01-27 21:52:00,40.0,19.0,-100.00,West,261,10.0,21.0,43,0.00,,,0.01,0.000000,,2013-01-28 05:52:00,
2013-01-27 22:02:00,40.0,19.0,-100.00,West,261,10.0,21.0,43,0.00,,,0.01,0.000000,,2013-01-28 06:02:00,
2013-01-27 22:11:00,40.0,19.0,-100.00,West,261,10.0,21.0,43,0.00,,,0.01,0.000000,,2013-01-28 06:11:00,
2013-01-27 22:21:00,40.0,19.0,-100.00,West,261,10.0,21.0,43,0.00,,,0.01,0.000000,,2013-01-28 06:21:00,
2013-01-27 22:52:00,39.0,16.0,-100.00,West,269,7.0,22.0,38,0.00,,,0.01,0.000000,,2013-01-28 06:52:00,
2013-01-27 23:02:00,39.0,16.0,-100.00,West,269,7.0,22.0,38,0.00,,,0.01,0.000000,,2013-01-28 07:02:00,
2013-01-27 23:11:00,39.0,16.0,-100.00,West,269,7.0,22.0,38,0.00,,,0.01,0.000000,,2013-01-28 07:11:00,
2013-01-27 23:21:00,39.0,16.0,-100.00,West,269,7.0,22.0,38,0.00,,,0.01,0.000000,,2013-01-28 07:21:00,
2013-01-27 23:52:00,40.0,15.0,-100.00,West,265,12.0,25.0,36,0.00,,,0.01,0.000000,,2013-01-28 07:52:00,